TimeEDT,TemperatureF,Dew PointF,Humidity,Sea Level PressureIn,VisibilityMPH,Wind Direction,Wind SpeedMPH,Gust SpeedMPH,PrecipitationIn,Events,Conditions,WindDirDegrees,DateUTC
12:51 AM,62.1,54.0,75,30.12,10.0,South,4.6,-,N/A,,Clear,180,2012-10-05 04:51:00
1:51 AM,60.8,53.6,77,30.14,10.0,South,4.6,-,N/A,,Clear,180,2012-10-05 05:51:00
2:51 AM,59.0,54.0,83,30.12,10.0,SSE,3.5,-,N/A,,Clear,150,2012-10-05 06:51:00
3:51 AM,59.0,54.0,83,30.09,10.0,SSE,3.5,-,N/A,,Clear,160,2012-10-05 07:51:00
4:51 AM,59.0,54.0,83,30.11,10.0,Calm,Calm,-,N/A,,Clear,0,2012-10-05 08:51:00
5:51 AM,59.0,54.0,83,30.11,10.0,South,3.5,-,N/A,,Mostly Cloudy,180,2012-10-05 09:51:00
6:51 AM,57.0,54.0,89,30.12,9.0,Calm,Calm,-,N/A,,Partly Cloudy,0,2012-10-05 10:51:00
7:51 AM,57.9,54.0,87,30.12,7.0,Calm,Calm,-,N/A,,Scattered Clouds,0,2012-10-05 11:51:00
8:51 AM,60.1,55.0,83,30.11,8.0,SSW,4.6,-,N/A,,Partly Cloudy,200,2012-10-05 12:51:00
9:51 AM,63.0,55.9,78,30.10,9.0,SSW,5.8,-,N/A,,Partly Cloudy,200,2012-10-05 13:51:00
10:51 AM,66.0,57.0,73,30.09,10.0,SW,5.8,-,N/A,,Scattered Clouds,220,2012-10-05 14:51:00
11:51 AM,68.0,57.0,68,30.09,10.0,WSW,6.9,-,N/A,,Scattered Clouds,240,2012-10-05 15:51:00
12:51 PM,71.1,57.9,63,30.07,10.0,WSW,9.2,-,N/A,,Scattered Clouds,250,2012-10-05 16:51:00
1:51 PM,73.0,57.0,57,30.04,10.0,SW,11.5,-,N/A,,Overcast,220,2012-10-05 17:51:00
2:51 PM,71.6,55.4,57,30.03,10.0,WNW,6.9,-,N/A,,Overcast,300,2012-10-05 18:51:00
3:51 PM,73.9,55.9,53,29.98,10.0,WSW,5.8,18.4,N/A,,Overcast,240,2012-10-05 19:51:00
4:51 PM,75.0,55.0,50,29.96,10.0,WSW,12.7,-,N/A,,Overcast,240,2012-10-05 20:51:00
5:51 PM,75.0,54.0,48,29.95,10.0,SW,15.0,-,N/A,,Overcast,230,2012-10-05 21:51:00
6:17 PM,69.8,55.4,60,29.97,10.0,NW,18.4,24.2,N/A,,Mostly Cloudy,320,2012-10-05 22:17:00
6:19 PM,68.0,55.4,64,29.98,10.0,NNW,17.3,24.2,N/A,,Overcast,340,2012-10-05 22:19:00
6:28 PM,64.4,53.6,68,29.98,10.0,North,13.8,-,N/A,,Overcast,360,2012-10-05 22:28:00
6:51 PM,62.1,54.0,75,29.97,10.0,North,9.2,-,N/A,,Overcast,350,2012-10-05 22:51:00
7:51 PM,57.9,52.0,81,29.95,10.0,North,9.2,-,N/A,,Overcast,350,2012-10-05 23:51:00
8:21 PM,57.2,51.8,82,29.98,10.0,NNW,13.8,-,N/A,,Overcast,330,2012-10-06 00:21:00
8:51 PM,55.9,50.0,80,29.99,10.0,NW,9.2,-,N/A,,Overcast,320,2012-10-06 00:51:00
9:27 PM,55.4,51.8,88,29.99,10.0,North,13.8,-,0.00,Rain,Light Rain,350,2012-10-06 01:27:00
9:51 PM,53.1,48.9,86,29.99,10.0,NNW,13.8,20.7,0.00,Rain,Light Rain,330,2012-10-06 01:51:00
10:10 PM,51.8,46.4,82,29.99,10.0,NNW,12.7,-,0.01,Rain,Light Rain,330,2012-10-06 02:10:00
10:51 PM,48.9,45.0,86,29.98,10.0,North,13.8,-,0.01,Rain,Light Rain,360,2012-10-06 02:51:00
11:09 PM,48.2,44.6,87,29.97,10.0,North,11.5,17.3,0.01,Rain,Light Rain,350,2012-10-06 03:09:00
11:19 PM,48.2,44.6,87,29.97,10.0,North,8.1,-,0.01,Rain,Light Rain,350,2012-10-06 03:19:00
11:30 PM,48.2,44.6,87,29.97,10.0,North,8.1,-,0.01,Rain,Light Rain,350,2012-10-06 03:30:00
11:41 PM,48.2,44.6,87,29.98,6.0,NW,8.1,-,0.02,Rain,Light Rain,320,2012-10-06 03:41:00
11:51 PM,48.2,44.6,87,29.97,6.0,North,10.4,-,N/A,Rain,Rain,350,2012-10-06 03:51:00